Regional Weather Roundup
Issued by NWS

Home | Current Version | Previous Version | Text Only | Print | Product List | Glossary On
Versions: 1 2 3 4 5 6 7 8 9 10 11 12 13 14 15 16 17 18 19 20 21 22 23 24 25 26 27 28 29 30 31 32 33 34 35 36 37 38 39 40 41 42 43 44 45 46 47 48 49 50
000
ASUS43 KFSD 211202
RWRSD

WEATHER ROUNDUP FOR SOUTH DAKOTA
NATIONAL WEATHER SERVICE SIOUX FALLS SD
700 AM CDT MON APR 21 2014

NOTE: "FAIR" INDICATES FEW OR NO CLOUDS BELOW 12,000 FEET WITH NO
SIGNIFICANT WEATHER AND/OR OBSTRUCTIONS TO VISIBILITY.


SDZ001>005-009-010-012>017-211300-
NORTHWEST AND NORTH CENTRAL SOUTH DAKOTA

CITY           SKY/WX    TMP DP  RH WIND       PRES   REMARKS
FAITH            N/A     38  25  59 W9        30.18R
MOBRIDGE       CLEAR     33  25  72 W3        30.12R
$$

SDZ012>016-024>037-041>051-057-063-072>074-211300-
SOUTHWEST AND SOUTH CENTRAL SOUTH DAKOTA

CITY           SKY/WX    TMP DP  RH WIND       PRES   REMARKS
RAPID CTY ARPT CLEAR     36  20  52 NW8       30.22R
PIERRE         CLEAR     39  28  64 NW14      30.12R
CUSTER         CLEAR     34  14  43 N3        30.25R
ELLSWORTH AFB  CLEAR     37  21  52 W5        30.21R
PHILIP         CLEAR     34  24  67 W8        30.19R WCI  27
PINE RIDGE     CLEAR     31  26  82 CALM      30.22R
WINNER         FAIR      42  26  53 NW10      30.14R
$$

SDZ004>011-016>023-039-040-211300-
NORTHEAST SOUTH DAKOTA

CITY           SKY/WX    TMP DP  RH WIND       PRES   REMARKS
ABERDEEN       CLEAR     40  30  67 NW10      30.07S
WATERTOWN      CLEAR     46  33  60 N12       30.03R
$$

SDZ017-020-022-023-036>040-048>070-211300-
SOUTHEAST SOUTH DAKOTA

CITY           SKY/WX    TMP DP  RH WIND       PRES   REMARKS
SIOUX FALLS    MOCLDY    54  34  46 N17       29.98R
HURON          CLEAR     41  32  70 NW10      30.07R
CHAMBERLAIN      N/A     44  30  57 NW13      30.11R
MITCHELL       CLEAR     43  34  70 NW13      30.06R
YANKTON        MOCLDY    52  37  58 NW20      30.01R
$$

ABBREVIATIONS USED IN REMARKS
   TC - TEMPERATURE IN CELSIUS
  WCI - WIND CHILL INDEX
   HX - HEAT INDEX
  VSB - VISIBILITY




USA.gov is the U.S. government's official web portal to all federal, state and local government web resources and services.